Flag for Malaysia Weather past 2 weeks in Kuala Lumpur, Malaysia

77 °F

Light rain. Mostly cloudy.

Feels Like: 78 °F
Forecast: 75 / 87 °F
Wind: 1 mph from Northwest

Location: Sultan Abdul Aziz Shah-Subang

Current Time: Nov 30, 2015 at 8:11:16 AM

Latest Report: Nov 30, 2015 at 7:00 AM

Visibility: 3 mi

Pressure: 29.89 "Hg

Humidity: 94%

Dew point: 75 °F

Location of Kuala LumpurLocation

Historic Weather in Kuala Lumpur — Graph


Kuala Lumpur temperature yesterday

Maximum temperature yesterday: 91 °F (at 1:00 PM)
Minimum temperature yesterday: 77 °F (at 6:00 AM)
Average temperature yesterday: 81 °F

Past Weeks' High & Low Weather Summary

High95 °F (Nov 18, 2:00 PM)100% (Nov 15, 5:00 PM)29.92 "Hg (Nov 15, 5:00 PM)
Low73 °F (Nov 27, 6:00 AM)53% (Nov 18, 2:00 PM)29.68 "Hg (Nov 21, 4:00 PM)
Average80 °F87%29.81 "Hg
* Reported Nov 15 6:00 AM — Nov 30 6:00 AM, Kuala Lumpur, Weather by CustomWeather, © 2015

Note: Actual official high and low records may vary slightly from our data, if they occured in-between our weather recording intervals... More about our weather records


Kuala Lumpur weather history for previous 24 hours

Time TempWeatherWind HumidityBarometerVisibility
6:00 AM
Mon, Nov 30
77 °FPartly cloudy.No wind94%29.86 "Hg4 mi
5:00 AM77 °FPartly cloudy.No wind94%29.86 "Hg4 mi
4:00 AM77 °FPartly cloudy.No wind94%29.86 "Hg4 mi
3:00 AM77 °FPassing clouds.No wind94%29.89 "Hg5 mi
2:00 AM77 °FPassing clouds.1 mph94%29.92 "Hg5 mi
1:00 AM77 °FPassing clouds.1 mph94%29.92 "Hg4 mi
12:00 AM77 °FPassing clouds.No wind94%29.92 "Hg4 mi
11:00 PM
Sun, Nov 29
77 °FPassing clouds.2 mph94%29.92 "Hg4 mi
10:00 PM79 °FPassing clouds.1 mph89%29.92 "Hg5 mi
9:00 PM79 °FPartly cloudy.2 mph89%29.92 "Hg6 mi
8:00 PM79 °FPartly cloudy.2 mph89%29.89 "Hg6 mi
7:00 PM79 °FBroken clouds.2 mph89%29.86 "HgN/A
6:00 PM79 °FThunderstorms. More clouds than sun.5 mph94%29.83 "Hg6 mi
5:00 PM81 °FThunderstorms. Broken clouds.3 mph84%29.80 "HgN/A
4:00 PM82 °FThunderstorms. Broken clouds.10 mph79%29.80 "HgN/A
3:00 PM88 °FThunderstorms. Broken clouds.10 mph70%29.80 "HgN/A
2:00 PM88 °FPartly sunny.7 mph70%29.83 "HgN/A
1:00 PM91 °FBroken clouds.6 mph56%29.86 "HgN/A
12:00 PM90 °FBroken clouds.2 mph59%29.89 "HgN/A
11:00 AM88 °FBroken clouds.5 mph66%29.89 "HgN/A
10:00 AM84 °FBroken clouds.3 mph74%29.92 "HgN/A
9:00 AM81 °FBroken clouds.3 mph84%29.92 "HgN/A
8:00 AM79 °FLight rain. Partly cloudy.2 mph89%29.89 "Hg5 mi
Weather by CustomWeather, © 2015

See weather overviewHow to use our weather pages